Location: Kellogg
(38.0159°N, 90.0546°W)
Time: 17:08:26
(UTC+00:00)

ARIANE 6 FM1 Upper Stage - Pass Details

Date: 21 August 2024
Orbit: 566 x 594 km, 62.0° (Epoch: 19 September)

Event Time Altitude Azimuth Distance (km) Brightness Sun altitude
Exits shadow 09:43:06 12° 171° (S) 1,754 4.9 -18.4°
Maximum altitude 09:46:18 27° 116° (ESE) 1,135 4.5 -17.9°
Drops below altitude 10° 09:49:55 10° 59° (ENE) 1,909 6.7 -17.3°
Sets 09:52:26 0° 47° (NE) 2,819 7.8 -16.9°
